星链-34202 (STARLINK-34202)

导读 | 豆包AI

STARLINK-34202是美国于2025年5月28日发射的星链卫星,归属SpaceX星链星座网络,星链计划旨在搭建全球卫星互联网,为全球偏远地区、海上以及空中等场景提供宽带网络服务,这类低轨卫星通过组网形式实现信号覆盖,该卫星入轨后参与星链星座运营,补充完善星座服务能力。

Basic Information
目录编号:
64174
目录名称:
STARLINK-34202
国际标识:
2025-113E
轨道中心:
EARTH
卫星名称:
星链-34202
卫星全名:
星链-34202 (STARLINK-34202)
卫星状态:
在轨 (已飞行290 天)
发射日期:
2025-05-28 UTC
国别 :
美国 (US)
星等 :
--
Orbit Information
数据来源 国际轨道数据 AOE轨道数据
星历时间 2026-03-14T17:05:22+0800
11小时前
查看轨道信息
2026-03-09T02:00:00+0800
6天前
查看轨道信息
半长轴 6853.186km 6853.393km
偏心率 0.000148 0.0001178
轨道倾角 53.161° 53.159°
近地点辐角 92.880° 77.529°
升交点赤经 69.306° 95.458°
平近点角 267.237° 218.226°
近地点 474.034km 474.448km
远地点 476.064km 476.064km
周期 94.102分钟 94.106分钟
每日圈数 15.302558 15.301864
Detailed Information
固有亮度:
5
最大亮度:
2.5
卫星平台:
Starlink V1.0
覆盖范围:
全球
运营商:
太空探索技术公司
运营商所在国:
美国
制造商(研发单位):
太空探索技术公司
制造商所在国:
美国
使用方式:
暂无
Satellite Introduction
Starlink 计划是 SpaceX 推出的全球卫星互联网项目,通过发射低轨道卫星,为全球尤其是偏远地区提供高速、低延迟的互联网服务。自 2019 年起,Starlink 已部署数千颗卫星,旨在缩小全球数字鸿沟,推动互联网普及。该项目还为军事、航空等行业提供通信支持,带来广泛经济效益。
2D Orbit Map
3D Orbit Map
Orbit Altitude Analysis Chart
Orbit Inclination Analysis Chart
Orbit Comprehensive Analysis Chart
View Comprehensive Chart